Location: Holyhead Bay
(53.3667°N, 4.6667°W)
Time: 05:03:21
(UTC+00:00)

Cosmos 1470 Rocket - Pass Details

Date: 24 November 2020
Orbit: 604 x 633 km, 82.5° (Epoch: 23 January)

Event Time Altitude Azimuth Distance (km) Brightness Sun altitude
Rises 18:19:26 0° 351° (N) 2,889 7.0 -18.5°
Reaches altitude 10° 18:21:44 10° 357° (N) 1,976 6.1 -18.9°
Maximum altitude 18:26:01 53° 74° (ENE) 752 3.6 -19.5°
Enters shadow 18:27:33 34° 132° (SE) 998 4.3 -19.7°
